| time (UTC) | temp C | wind direction | speed KPH | gust KPH | rain 1hr cm | rain 24hr cm | rain mn cm | humidity % | barometer mb |
| 20260503022057 | 10 | 298 | 0.0 | 0.0 | 0.00 | 0.00 | 0.00 | 94 | 1009.9 |
| 20260503021555 | 10 | 299 | 0.0 | 0.0 | 0.00 | 0.00 | 0.00 | 94 | 1010.0 |
| 20260503021054 | 10 | 299 | 0.0 | 0.0 | 0.00 | 0.00 | 0.00 | 94 | 1009.9 |
| 20260503020553 | 10 | 298 | 0.0 | 0.0 | 0.00 | 0.00 | 0.00 | 94 | 1009.9 |
| 20260503020053 | 10 | 298 | 0.0 | 0.0 | 0.00 | 0.00 | 0.00 | 94 | 1010.1 |
| 20260503015552 | 10 | 298 | 0.0 | 0.0 | 0.00 | 0.00 | 0.00 | 93 | 1010.0 |
| 20260503015056 | 10 | 298 | 0.0 | 0.0 | 0.00 | 0.00 | 0.00 | 93 | 1010.0 |
| 20260503014612 | 10 | 298 | 0.0 | 0.0 | 0.00 | 0.00 | 0.00 | 93 | 1010.0 |
| 20260503014052 | 10 | 299 | 0.0 | 0.0 | 0.00 | 0.00 | 0.00 | 93 | 1009.9 |
| 20260503013552 | 10 | 298 | 0.0 | 0.0 | 0.00 | 0.00 | 0.00 | 93 | 1009.9 |
| 20260503013052 | 10 | 298 | 0.0 | 0.0 | 0.00 | 0.00 | 0.00 | 93 | 1010.0 |
| 20260503012551 | 10 | 298 | 0.0 | 0.0 | 0.00 | 0.00 | 0.00 | 93 | 1010.0 |
| 20260503012049 | 10 | 299 | 0.0 | 0.0 | 0.00 | 0.00 | 0.00 | 93 | 1010.1 |
| 20260503011608 | 10 | 298 | 0.0 | 1.6 | 0.00 | 0.00 | 0.00 | 93 | 1010.1 |
| 20260503011052 | 10 | 298 | 0.0 | 1.6 | 0.00 | 0.00 | 0.00 | 93 | 1010.2 |
| 20260503010549 | 10 | 298 | 0.0 | 1.6 | 0.00 | 0.00 | 0.00 | 93 | 1010.2 |
| 20260503010049 | 10 | 298 | 0.0 | 0.0 | 0.00 | 0.00 | 0.00 | 93 | 1010.2 |
| 20260503005550 | 10 | 298 | 0.0 | 0.0 | 0.00 | 0.00 | 0.00 | 93 | 1010.2 |
| 20260503005048 | 10 | 298 | 0.0 | 0.0 | 0.00 | 0.00 | 0.00 | 93 | 1010.3 |
| 20260503004548 | 10 | 298 | 0.0 | 0.0 | 0.00 | 0.00 | 0.00 | 93 | 1010.3 |
| 20260503004046 | 10 | 298 | 0.0 | 0.0 | 0.00 | 0.00 | 0.00 | 93 | 1010.3 |
| 20260503003544 | 10 | 298 | 0.0 | 0.0 | 0.00 | 0.00 | 0.00 | 93 | 1010.3 |
| 20260503003044 | 10 | 298 | 0.0 | 0.0 | 0.00 | 0.00 | 0.00 | 93 | 1010.4 |
| 20260503002541 | 10 | 298 | 0.0 | 0.0 | 0.00 | 0.00 | 0.00 | 93 | 1010.4 |
| 20260503002040 | 10 | 298 | 0.0 | 0.0 | 0.00 | 0.00 | 0.00 | 93 | 1010.5 |
| 20260503001540 | 10 | 298 | 0.0 | 0.0 | 0.00 | 0.00 | 0.00 | 93 | 1010.5 |
| 20260503001039 | 10 | 298 | 0.0 | 0.0 | 0.00 | 0.00 | 0.00 | 92 | 1010.4 |
| 20260503000540 | 10 | 298 | 0.0 | 0.0 | 0.00 | 0.00 | 0.00 | 92 | 1010.4 |
| 20260503000040 | 10 | 298 | 0.0 | 0.0 | 0.00 | 0.00 | 0.00 | 92 | 1010.4 |
| 20260502235538 | 10 | 298 | 0.0 | 0.0 | 0.00 | 0.00 | 0.00 | 92 | 1010.5 |
| 20260502235038 | 10 | 298 | 0.0 | 0.0 | 0.00 | 0.00 | 0.00 | 92 | 1010.5 |
| 20260502234558 | 10 | 298 | 0.0 | 0.0 | 0.00 | 0.00 | 0.00 | 92 | 1010.5 |
| 20260502234038 | 10 | 298 | 0.0 | 0.0 | 0.00 | 0.00 | 0.00 | 92 | 1010.5 |
| 20260502233537 | 10 | 298 | 0.0 | 0.0 | 0.00 | 0.00 | 0.00 | 92 | 1010.5 |
| 20260502233037 | 10 | 298 | 0.0 | 0.0 | 0.00 | 0.00 | 0.00 | 92 | 1010.6 |
| 20260502232536 | 10 | 298 | 0.0 | 0.0 | 0.00 | 0.00 | 0.00 | 92 | 1010.6 |
| 20260502232037 | 10 | 298 | 0.0 | 0.0 | 0.00 | 0.00 | 0.00 | 91 | 1010.6 |
| 20260502231535 | 10 | 298 | 0.0 | 0.0 | 0.00 | 0.00 | 0.00 | 91 | 1010.7 |
| 20260502231035 | 10 | 298 | 0.0 | 0.0 | 0.00 | 0.00 | 0.00 | 91 | 1010.7 |
| 20260502230533 | 10 | 298 | 0.0 | 0.0 | 0.00 | 0.00 | 0.00 | 91 | 1010.7 |
| 20260502230033 | 10 | 298 | 0.0 | 0.0 | 0.00 | 0.00 | 0.00 | 91 | 1010.7 |
| 20260502225532 | 10 | 298 | 0.0 | 0.0 | 0.00 | 0.00 | 0.00 | 91 | 1010.6 |
| 20260502225031 | 10 | 298 | 0.0 | 0.0 | 0.00 | 0.00 | 0.00 | 91 | 1010.6 |
| 20260502224531 | 10 | 298 | 0.0 | 0.0 | 0.00 | 0.00 | 0.00 | 91 | 1010.6 |
| 20260502224032 | 10 | 298 | 0.0 | 0.0 | 0.00 | 0.00 | 0.00 | 90 | 1010.6 |
| 20260502223531 | 11 | 298 | 0.0 | 0.0 | 0.00 | 0.00 | 0.00 | 90 | 1010.7 |
| 20260502223031 | 11 | 298 | 0.0 | 0.0 | 0.00 | 0.00 | 0.00 | 90 | 1010.7 |
| 20260502222530 | 11 | 298 | 0.0 | 0.0 | 0.00 | 0.00 | 0.00 | 90 | 1010.7 |
| 20260502222029 | 11 | 298 | 0.0 | 0.0 | 0.00 | 0.00 | 0.00 | 90 | 1010.6 |
| 20260502221529 | 11 | 298 | 0.0 | 0.0 | 0.00 | 0.00 | 0.00 | 89 | 1010.7 |
| 20260502221029 | 11 | 298 | 0.0 | 0.0 | 0.00 | 0.00 | 0.00 | 89 | 1010.6 |
| 20260502220529 | 11 | 298 | 0.0 | 0.0 | 0.00 | 0.00 | 0.00 | 89 | 1010.6 |
| 20260502220029 | 11 | 298 | 0.0 | 0.0 | 0.00 | 0.00 | 0.00 | 89 | 1010.7 |
| 20260502215529 | 11 | 298 | 0.0 | 0.0 | 0.00 | 0.00 | 0.00 | 88 | 1010.6 |
| 20260502215028 | 11 | 298 | 0.0 | 0.0 | 0.00 | 0.00 | 0.00 | 88 | 1010.4 |
| 20260502214528 | 11 | 298 | 0.0 | 0.0 | 0.00 | 0.00 | 0.00 | 88 | 1010.5 |
| 20260502214032 | 11 | 298 | 0.0 | 0.0 | 0.00 | 0.00 | 0.00 | 88 | 1010.5 |
| 20260502213529 | 11 | 298 | 0.0 | 0.0 | 0.00 | 0.00 | 0.00 | 87 | 1010.5 |
| 20260502213038 | 11 | 298 | 0.0 | 0.0 | 0.00 | 0.00 | 0.00 | 87 | 1010.5 |
| 20260502212528 | 11 | 298 | 0.0 | 0.0 | 0.00 | 0.00 | 0.00 | 87 | 1010.5 |
| 20260502212027 | 11 | 298 | 0.0 | 0.0 | 0.00 | 0.00 | 0.00 | 86 | 1010.5 |
| 20260502211528 | 11 | 298 | 0.0 | 0.0 | 0.00 | 0.00 | 0.00 | 86 | 1010.6 |
| 20260502211028 | 11 | 298 | 0.0 | 1.6 | 0.00 | 0.00 | 0.00 | 86 | 1010.6 |
| 20260502210526 | 11 | 298 | 0.0 | 1.6 | 0.00 | 0.00 | 0.00 | 86 | 1010.6 |
| 20260502210027 | 11 | 298 | 0.0 | 3.2 | 0.00 | 0.00 | 0.00 | 86 | 1010.6 |
| 20260502205527 | 11 | 298 | 0.0 | 3.2 | 0.00 | 0.00 | 0.00 | 85 | 1010.5 |
| 20260502205028 | 11 | 10 | 0.0 | 1.6 | 0.00 | 0.00 | 0.00 | 84 | 1010.5 |
| 20260502204527 | 11 | 60 | 0.0 | 0.0 | 0.00 | 0.00 | 0.00 | 84 | 1010.5 |
| 20260502204028 | 11 | 60 | 0.0 | 1.6 | 0.00 | 0.00 | 0.00 | 84 | 1010.6 |
| 20260502203532 | 11 | 60 | 0.0 | 1.6 | 0.00 | 0.00 | 0.00 | 84 | 1010.5 |
| 20260502203028 | 11 | 60 | 0.0 | 3.2 | 0.00 | 0.00 | 0.00 | 84 | 1010.5 |
| 20260502202525 | 11 | 60 | 0.0 | 3.2 | 0.00 | 0.00 | 0.00 | 84 | 1010.5 |
| 20260502202025 | 11 | 85 | 1.6 | 3.2 | 0.00 | 0.00 | 0.00 | 84 | 1010.5 |
| 20260502201535 | 11 | 125 | 0.0 | 3.2 | 0.00 | 0.00 | 0.00 | 84 | 1010.5 |
| 20260502201029 | 11 | 127 | 0.0 | 4.8 | 0.00 | 0.00 | 0.00 | 84 | 1010.5 |
| 20260502200525 | 11 | 165 | 0.0 | 3.2 | 0.00 | 0.00 | 0.00 | 84 | 1010.5 |
| 20260502200025 | 11 | 254 | 0.0 | 3.2 | 0.00 | 0.00 | 0.00 | 84 | 1010.5 |
| 20260502195524 | 11 | 250 | 0.0 | 3.2 | 0.00 | 0.00 | 0.00 | 84 | 1010.5 |
| 20260502195024 | 11 | 224 | 0.0 | 1.6 | 0.00 | 0.00 | 0.00 | 83 | 1010.6 |
| 20260502194525 | 12 | 224 | 0.0 | 4.8 | 0.00 | 0.00 | 0.00 | 83 | 1010.4 |
| 20260502194025 | 12 | 224 | 0.0 | 4.8 | 0.00 | 0.00 | 0.00 | 82 | 1010.4 |
| 20260502193529 | 12 | 124 | 0.0 | 4.8 | 0.00 | 0.00 | 0.00 | 82 | 1010.4 |
| 20260502193027 | 12 | 125 | 0.0 | 4.8 | 0.00 | 0.00 | 0.00 | 82 | 1010.4 |
| 20260502192523 | 12 | 127 | 0.0 | 4.8 | 0.00 | 0.00 | 0.00 | 81 | 1010.4 |
| 20260502192023 | 12 | 131 | 0.0 | 3.2 | 0.00 | 0.00 | 0.00 | 81 | 1010.5 |
| 20260502191528 | 12 | 131 | 0.0 | 8.0 | 0.00 | 0.00 | 0.00 | 81 | 1010.5 |
| 20260502191025 | 12 | 131 | 0.0 | 8.0 | 0.00 | 0.00 | 0.00 | 81 | 1010.5 |
| 20260502190525 | 12 | 143 | 0.0 | 3.2 | 0.00 | 0.00 | 0.00 | 81 | 1010.4 |
| 20260502190023 | 12 | 143 | 0.0 | 3.2 | 0.00 | 0.00 | 0.00 | 81 | 1010.4 |
| 20260502185522 | 13 | 143 | 0.0 | 3.2 | 0.00 | 0.00 | 0.00 | 80 | 1010.5 |
| 20260502185023 | 13 | 127 | 0.0 | 1.6 | 0.00 | 0.00 | 0.00 | 80 | 1010.4 |
| 20260502184525 | 13 | 127 | 0.0 | 1.6 | 0.00 | 0.00 | 0.00 | 80 | 1010.4 |
| 20260502184023 | 13 | 127 | 0.0 | 6.4 | 0.00 | 0.00 | 0.00 | 79 | 1010.5 |
| 20260502183522 | 13 | 127 | 0.0 | 6.4 | 0.00 | 0.00 | 0.00 | 79 | 1010.5 |
| 20260502183028 | 13 | 116 | 0.0 | 4.8 | 0.00 | 0.00 | 0.00 | 79 | 1010.4 |
| 20260502182522 | 13 | 116 | 0.0 | 4.8 | 0.00 | 0.00 | 0.00 | 78 | 1010.4 |
| 20260502182021 | 13 | 118 | 0.0 | 0.0 | 0.00 | 0.00 | 0.00 | 78 | 1010.4 |
| 20260502181523 | 13 | 118 | 0.0 | 0.0 | 0.00 | 0.00 | 0.00 | 78 | 1010.4 |
| 20260502181021 | 14 | 118 | 0.0 | 0.0 | 0.00 | 0.00 | 0.00 | 78 | 1010.4 |
| 20260502180521 | 13 | 118 | 0.0 | 0.0 | 0.00 | 0.00 | 0.00 | 77 | 1010.4 |
| 20260502164017 | 15 | 331 | 0.0 | 4.8 | 0.00 | 0.00 | 0.00 | 76 | 1010.5 |
| 20260502163517 | 15 | 330 | 0.0 | 4.8 | 0.00 | 0.00 | 0.00 | 75 | 1010.5 |
| 20260502163019 | 15 | 117 | 0.0 | 4.8 | 0.00 | 0.00 | 0.00 | 76 | 1010.5 |
| 20260502162516 | 14 | 292 | 0.0 | 3.2 | 0.00 | 0.00 | 0.00 | 76 | 1010.5 |
| 20260502162016 | 14 | 288 | 0.0 | 4.8 | 0.00 | 0.00 | 0.00 | 76 | 1010.6 |
| 20260502161515 | 14 | 287 | 0.0 | 4.8 | 0.00 | 0.00 | 0.00 | 76 | 1010.7 |
| 20260502161014 | 14 | 148 | 0.0 | 3.2 | 0.00 | 0.00 | 0.00 | 76 | 1010.7 |
| 20260502160514 | 14 | 148 | 0.0 | 3.2 | 0.00 | 0.00 | 0.00 | 76 | 1010.8 |
| 20260502152014 | 14 | 268 | 0.0 | 4.8 | 0.00 | 0.00 | 0.00 | 74 | 1011.0 |
| 20260502151510 | 14 | 104 | 0.0 | 4.8 | 0.00 | 0.00 | 0.00 | 76 | 1011.1 |
| 20260502151012 | 14 | 103 | 0.0 | 9.7 | 0.00 | 0.00 | 0.00 | 76 | 1011.2 |
| 20260502150511 | 14 | 127 | 1.6 | 6.4 | 0.00 | 0.00 | 0.00 | 76 | 1011.1 |
| 20260502130500 | 15 | 127 | 1.6 | 11.3 | 0.00 | 0.00 | 0.00 | 73 | 1012.3 |
| 20260502123558 | 15 | 291 | 0.0 | 4.8 | 0.00 | 0.00 | 0.00 | 71 | 1012.5 |
| 20260502123056 | 15 | 288 | 0.0 | 4.8 | 0.00 | 0.00 | 0.00 | 71 | 1012.5 |
| 20260502122556 | 15 | 131 | 0.0 | 3.2 | 0.00 | 0.00 | 0.00 | 72 | 1012.6 |
| 20260502122053 | 15 | 261 | 0.0 | 3.2 | 0.00 | 0.00 | 0.00 | 72 | 1012.7 |
| 20260502121552 | 15 | 271 | 0.0 | 6.4 | 0.00 | 0.00 | 0.00 | 71 | 1012.7 |
| 20260502121051 | 15 | 315 | 0.0 | 6.4 | 0.00 | 0.00 | 0.00 | 72 | 1012.8 |
| 20260502120551 | 15 | 238 | 0.0 | 4.8 | 0.00 | 0.00 | 0.00 | 71 | 1012.8 |
| 20260502115549 | 15 | 112 | 0.0 | 9.7 | 0.00 | 0.00 | 0.00 | 71 | 1012.9 |
| 20260502115049 | 15 | 113 | 0.0 | 6.4 | 0.00 | 0.00 | 0.00 | 72 | 1012.9 |
| 20260502114547 | 15 | 124 | 1.6 | 6.4 | 0.00 | 0.00 | 0.00 | 71 | 1012.9 |
| 20260502114046 | 15 | 281 | 1.6 | 4.8 | 0.00 | 0.00 | 0.00 | 71 | 1012.8 |
| 20260502113545 | 15 | 321 | 0.0 | 6.4 | 0.00 | 0.00 | 0.00 | 72 | 1012.8 |
| 20260502113045 | 15 | 307 | 0.0 | 8.0 | 0.00 | 0.00 | 0.00 | 74 | 1012.8 |
| 20260502112542 | 15 | 319 | 3.2 | 8.0 | 0.00 | 0.00 | 0.00 | 74 | 1012.7 |
| 20260502112042 | 14 | 281 | 0.0 | 3.2 | 0.00 | 0.00 | 0.00 | 75 | 1012.8 |
| 20260502111541 | 14 | 283 | 0.0 | 4.8 | 0.00 | 0.00 | 0.00 | 76 | 1012.8 |
| 20260502111041 | 13 | 278 | 0.0 | 9.7 | 0.00 | 0.00 | 0.00 | 76 | 1012.9 |
| 20260502110541 | 13 | 296 | 4.8 | 11.3 | 0.00 | 0.00 | 0.00 | 74 | 1012.8 |
| 20260502110044 | 14 | 247 | 1.6 | 11.3 | 0.00 | 0.00 | 0.00 | 76 | 1013.0 |
| 20260502105540 | 14 | 290 | 3.2 | 9.7 | 0.00 | 0.00 | 0.00 | 75 | 1012.9 |
| 20260502105041 | 14 | 311 | 3.2 | 9.7 | 0.00 | 0.00 | 0.00 | 75 | 1012.9 |
| 20260502104542 | 14 | 271 | 1.6 | 8.0 | 0.00 | 0.00 | 0.00 | 75 | 1013.0 |
| 20260502104040 | 14 | 294 | 3.2 | 9.7 | 0.00 | 0.00 | 0.00 | 76 | 1012.9 |
| 20260502103541 | 14 | 256 | 1.6 | 9.7 | 0.00 | 0.00 | 0.00 | 75 | 1013.0 |
| 20260502103039 | 14 | 279 | 3.2 | 8.0 | 0.00 | 0.00 | 0.00 | 75 | 1013.0 |
| 20260502102539 | 14 | 294 | 3.2 | 8.0 | 0.00 | 0.00 | 0.00 | 74 | 1013.0 |
| 20260502102038 | 14 | 286 | 4.8 | 8.0 | 0.00 | 0.00 | 0.00 | 74 | 1013.0 |
| 20260502101543 | 15 | 286 | 3.2 | 6.4 | 0.00 | 0.00 | 0.00 | 73 | 1013.1 |
| 20260502101036 | 15 | 359 | 0.0 | 4.8 | 0.00 | 0.00 | 0.00 | 74 | 1013.2 |
| 20260502100535 | 14 | 358 | 1.6 | 6.4 | 0.00 | 0.00 | 0.00 | 75 | 1013.2 |
| 20260502091032 | 14 | 94 | 1.6 | 4.8 | 0.00 | 0.00 | 0.00 | 72 | 1013.4 |
| 20260502090530 | 14 | 94 | 0.0 | 3.2 | 0.00 | 0.00 | 0.00 | 73 | 1013.5 |
| 20260502071516 | 12 | 75 | 3.2 | 9.7 | 0.00 | 0.00 | 0.00 | 78 | 1013.9 |
| 20260502071016 | 12 | 81 | 4.8 | 9.7 | 0.00 | 0.00 | 0.00 | 78 | 1013.8 |
| 20260502070518 | 12 | 118 | 1.6 | 8.0 | 0.00 | 0.00 | 0.00 | 80 | 1013.9 |
| 20260502070021 | 12 | 105 | 1.6 | 6.4 | 0.00 | 0.00 | 0.00 | 81 | 1014.0 |
| 20260502065512 | 12 | 105 | 1.6 | 6.4 | 0.00 | 0.00 | 0.00 | 80 | 1014.0 |
| 20260502065044 | 12 | 96 | 1.6 | 6.4 | 0.00 | 0.00 | 0.00 | 81 | 1014.1 |
| 20260502064504 | 12 | 121 | 1.6 | 4.8 | 0.00 | 0.00 | 0.00 | 81 | 1014.1 |
| 20260502064002 | 12 | 122 | 1.6 | 6.4 | 0.00 | 0.00 | 0.00 | 81 | 1014.1 |
| 20260502063501 | 12 | 92 | 0.0 | 4.8 | 0.00 | 0.00 | 0.00 | 82 | 1014.1 |
| 20260502063001 | 11 | 92 | 3.2 | 6.4 | 0.00 | 0.00 | 0.00 | 81 | 1014.0 |
| 20260502062601 | 11 | 83 | 0.0 | 6.4 | 0.00 | 0.00 | 0.00 | 82 | 1014.1 |
| 20260502062059 | 11 | 88 | 1.6 | 4.8 | 0.00 | 0.00 | 0.00 | 84 | 1014.1 |
| 20260502061558 | 11 | 103 | 0.0 | 3.2 | 0.00 | 0.00 | 0.00 | 84 | 1014.2 |
| 20260502061056 | 10 | 103 | 1.6 | 3.2 | 0.00 | 0.00 | 0.00 | 85 | 1014.0 |
| 20260502060555 | 10 | 103 | 0.0 | 0.0 | 0.00 | 0.00 | 0.00 | 87 | 1014.1 |
| 20260502060057 | 10 | 103 | 0.0 | 3.2 | 0.00 | 0.00 | 0.00 | 88 | 1014.1 |
| 20260502055553 | 9 | 103 | 0.0 | 4.8 | 0.00 | 0.00 | 0.00 | 88 | 1014.1 |
| 20260502055055 | 9 | 103 | 1.6 | 4.8 | 0.00 | 0.00 | 0.00 | 88 | 1014.1 |
| 20260502054602 | 9 | 103 | 1.6 | 4.8 | 0.00 | 0.00 | 0.00 | 88 | 1014.0 |
| 20260502054051 | 8 | 103 | 0.0 | 0.0 | 0.00 | 0.00 | 0.00 | 88 | 1014.1 |
| 20260502053547 | 8 | 103 | 0.0 | 0.0 | 0.00 | 0.00 | 0.00 | 88 | 1014.0 |
| 20260502053047 | 8 | 103 | 0.0 | 0.0 | 0.00 | 0.00 | 0.00 | 88 | 1014.0 |
| 20260502052546 | 8 | 103 | 0.0 | 0.0 | 0.00 | 0.00 | 0.00 | 88 | 1013.9 |
| 20260502052046 | 8 | 103 | 0.0 | 0.0 | 0.00 | 0.00 | 0.00 | 88 | 1014.0 |
| 20260502051548 | 8 | 103 | 0.0 | 0.0 | 0.00 | 0.00 | 0.00 | 87 | 1014.0 |
| 20260502051043 | 8 | 103 | 0.0 | 0.0 | 0.00 | 0.00 | 0.00 | 87 | 1014.0 |
| 20260502050543 | 9 | 103 | 0.0 | 0.0 | 0.00 | 0.00 | 0.00 | 87 | 1014.1 |
| 20260502050049 | 9 | 103 | 0.0 | 0.0 | 0.00 | 0.00 | 0.00 | 87 | 1014.1 |
| 20260502045541 | 9 | 94 | 0.0 | 0.0 | 0.00 | 0.00 | 0.00 | 87 | 1014.2 |
| 20260502045041 | 9 | 94 | 0.0 | 0.0 | 0.00 | 0.00 | 0.00 | 86 | 1014.2 |
| 20260502044540 | 9 | 94 | 0.0 | 0.0 | 0.00 | 0.00 | 0.00 | 86 | 1014.2 |
| 20260502044038 | 9 | 94 | 0.0 | 0.0 | 0.00 | 0.00 | 0.00 | 85 | 1014.1 |
| 20260502043537 | 9 | 94 | 0.0 | 0.0 | 0.00 | 0.00 | 0.00 | 85 | 1014.2 |
| 20260502043050 | 10 | 94 | 0.0 | 0.0 | 0.00 | 0.00 | 0.00 | 85 | 1014.3 |
| 20260502042535 | 10 | 94 | 0.0 | 0.0 | 0.00 | 0.00 | 0.00 | 84 | 1014.3 |
| 20260502042034 | 10 | 94 | 0.0 | 0.0 | 0.00 | 0.00 | 0.00 | 84 | 1014.2 |
| 20260502041553 | 10 | 94 | 0.0 | 0.0 | 0.00 | 0.00 | 0.00 | 84 | 1014.3 |
| 20260502041033 | 10 | 94 | 0.0 | 0.0 | 0.00 | 0.00 | 0.00 | 83 | 1014.4 |
| 20260502040531 | 10 | 94 | 0.0 | 0.0 | 0.00 | 0.00 | 0.00 | 83 | 1014.4 |
| 20260502040046 | 10 | 94 | 0.0 | 0.0 | 0.00 | 0.00 | 0.00 | 83 | 1014.6 |
| 20260502035529 | 10 | 94 | 0.0 | 0.0 | 0.00 | 0.00 | 0.00 | 82 | 1014.4 |
| 20260502035028 | 11 | 94 | 0.0 | 0.0 | 0.00 | 0.00 | 0.00 | 82 | 1014.5 |
| 20260502034528 | 11 | 94 | 0.0 | 0.0 | 0.00 | 0.00 | 0.00 | 82 | 1014.5 |
| 20260502034029 | 11 | 94 | 0.0 | 0.0 | 0.00 | 0.00 | 0.00 | 82 | 1014.6 |
| 20260502033529 | 11 | 94 | 0.0 | 0.0 | 0.00 | 0.00 | 0.00 | 82 | 1014.5 |
| 20260502033030 | 11 | 94 | 0.0 | 0.0 | 0.00 | 0.00 | 0.00 | 82 | 1014.5 |
| 20260502032525 | 11 | 94 | 0.0 | 0.0 | 0.00 | 0.00 | 0.00 | 83 | 1014.6 |
| 20260502032023 | 11 | 94 | 0.0 | 0.0 | 0.00 | 0.00 | 0.00 | 83 | 1014.6 |
| 20260502031522 | 11 | 94 | 0.0 | 3.2 | 0.00 | 0.00 | 0.00 | 83 | 1014.8 |
| 20260502031021 | 11 | 94 | 0.0 | 3.2 | 0.00 | 0.00 | 0.00 | 83 | 1014.8 |
| 20260502030520 | 11 | 319 | 0.0 | 1.6 | 0.00 | 0.00 | 0.00 | 83 | 1015.0 |
| 20260502030020 | 11 | 298 | 0.0 | 3.2 | 0.00 | 0.00 | 0.00 | 83 | 1015.0 |
| 20260502025520 | 11 | 298 | 0.0 | 3.2 | 0.00 | 0.00 | 0.00 | 83 | 1014.9 |
| 20260502025021 | 11 | 279 | 0.0 | 1.6 | 0.00 | 0.00 | 0.00 | 83 | 1014.9 |
| 20260502024519 | 11 | 279 | 0.0 | 3.2 | 0.00 | 0.00 | 0.00 | 82 | 1015.0 |
| 20260502024017 | 11 | 279 | 0.0 | 3.2 | 0.00 | 0.00 | 0.00 | 82 | 1015.0 |
| 20260502023520 | 11 | 309 | 0.0 | 3.2 | 0.00 | 0.00 | 0.00 | 82 | 1015.0 |
| 20260502023027 | 11 | 309 | 0.0 | 3.2 | 0.00 | 0.00 | 0.00 | 82 | 1014.9 |
| 20260502022517 | 11 | 309 | 0.0 | 4.8 | 0.00 | 0.00 | 0.00 | 81 | 1015.0 |